Aeroporto :
LOGIN :

Iscrizione | Disclaimer

   EN    FR    IT 

 










Sommario :    VFR   VFR Marginale   IFR   IFR Intensivo   IFR Molto Intensivo
Visibilità : 
Base nubi : 
>= 8 km
>= 3000ft
5 / 8 km
1000 / 3000 ft
1500m / 5 km
500 / 1000 ft
800 / 1500m
200 / 500 ft
< 800m
< 200 ft
Simboli :   Temporali  Nebbia  Neve Forte  Precipitazioni Forti  Vento > 20 kt
SIGMETs :   Varie  Temporali  Ghiacco  Turbolenza  Onda orograficha  Ceneri Vulcaniche






- Altitudine del aeroporto : 68 ft
- Codice IATA : AGH


ESTA - Ängelholm-Helsingborg

ULTIMO METAR :
  • 200220Z AUTO 31024KT 9999 FEW039/// BKN088/// 01/M05 Q1001

METARs OBSOLETI :
  • 200150Z AUTO 30025KT 9999 OVC064/// 01/M03 Q1001
  • 200120Z AUTO 30026KT 9999 BKN044/// OVC072/// 01/M03 Q1000 RESG
  • 200050Z AUTO 30024KT 9999 SG FEW016/// OVC051/// 01/M04 Q1000
  • 200020Z AUTO 33026KT 9999 -SN BKN043/// OVC064/// 01/M02 Q1000 RESHUP REUP
  • 192350Z AUTO 32017KT 9999 FEW033/// OVC055/// 01/M02 Q1000

Previsioni scadute.



MetMap, La meteo Aeronautica in un colpo d'occhio ! - Copyright ORBIFLY Dicembre 2007 - Disclaimer

ORBIFLY MET'MAP TEAM :

Programmazione e sviluppo : Alexandra Zaïnal
Concezione : Baudouin d'Aumeries
Aiuto per la programmazione : Marc-Olivier Méhu
Supporto tecnico e logistico : Manuel Goepfert
Aiuto per la traduzione : Arnaldo La Scala

Contatto : metmap@orbifly.com




FONTI E CREDITI :

   NOAA